Current Weather Conditions by Major Hwy


I-84 West to East [Columbia River Gorge] 1000 AM PST THU DEC 13 2018 ELEVA CITY SKY/WX TMP DP RH WIND PRES REMARKS 10 ASTORIA, OR CLOUDY 54 44 69 S17G30 30.07S 20 KELSO PTSUNNY 49 39 68 S10G20 30.16R 40 PORTLAND, OR PTSUNNY 48 40 73 SE10 30.20R 30 TROUTDALE, OR PTSUNNY 45 40 82 E12 30.21S 240 THE DALLES, OR PTSUNNY 38 35 89 CALM 30.24R 620 HERMISTON, OR CLOUDY 43 35 73 CALM 30.18S 1,480 PENDLETON, OR CLOUDY 50 27 40 S9 30.18S 2,710 LA GRANDE CLOUDY 36 22 56 S17G30 30.34S WCI 26 3,370 BAKER CITY NOT AVBL 2,190 ONTARIO CLOUDY 31 25 78 CALM 30.51R
I-90 West to East 1000 AM PST THU DEC 13 2018 ELEVA CITY SKY/WX TMP DP RH WIND PRES REMARKS 30 SEATAC AIRPORT LGT RAIN 49 39 68 S9 30.08R 1,730 ELLENSBURG PTSUNNY 34 30 85 NE5 30.09S 1,200 MOSES LAKE CLOUDY 43 33 68 S14 30.10S 1,880 SPOKANE GEIGER CLOUDY 36 30 79 S15 30.14R
I-82 North West to South East 1000 AM PST THU DEC 13 2018 ELEVA CITY SKY/WX TMP DP RH WIND PRES REMARKS 1,730 ELLENSBURG PTSUNNY 34 30 85 NE5 30.09S 1,050 YAKIMA TC FAIR 41 27 57 NW6 30.09R 720 360 PASCO CLOUDY 48 31 51 S18 30.18F 620 HERMISTON, OR CLOUDY 43 35 73 CALM 30.18S
Hwy97 North to South 1000 AM PST THU DEC 13 2018 ELEVA CITY SKY/WX TMP DP RH WIND PRES REMARKS 850 OMAK CLOUDY 42 34 73 S20G26 30.05R 630 WENATCHEE CLOUDY 36 33 89 NE5 30.07S 1,730 ELLENSBURG PTSUNNY 34 30 85 NE5 30.09S 1,050 YAKIMA TC FAIR 41 27 57 NW6 30.09R 1,640 GOLDENDALE* PTSUNNY 38 35 89 CALM 30.24R *From Dallesport Airport Elev 240 3,080 REDMOND PTSUNNY 42 23 46 S15 30.23S 4,100 KLAMATH FALLS SUNNY 32 26 78 CALM 30.34S
I-5 North to South 1000 AM PST THU DEC 13 2018 ELEVA CITY SKY/WX TMP DP RH WIND PRES REMARKS 150 BELLINGHAM CLOUDY 49 41 74 SE22G32 29.97S 100 ARLINGTON LGT RAIN 48 43 81 SE22 30.05S 610 EVERETT CLOUDY 47 40 76 SE20 30.06R 30 SEATAC AIRPORT LGT RAIN 49 39 68 S9 30.08R 200 OLYMPIA CLOUDY 49 39 68 S20G30 30.07R 20 KELSO PTSUNNY 49 39 68 S10G20 30.16R 100 VANCOUVER PTSUNNY 46 39 76 E7 30.20R 40 PORTLAND PTSUNNY 48 40 73 SE10 30.20R 200 SALEM PTSUNNY 48 37 65 S12 30.19S 360 EUGENE PTSUNNY 46 38 73 SE12 30.23F 510 ROSEBURG MOSUNNY 36 35 96 CALM 30.25S FOG 1,300 MEDFORD FOG 32 31 96 CALM 30.31S VSB 1/4
Data from:
http://www.wrh.noaa.gov/sew/get.php?pil=RWR&sid=OR&version=0&format=printer
http://www.wrh.noaa.gov/sew/get.php?pil=RWR&sid=WA&version=0&format=printer

Current Observations

Washington State Current Weather Observations   …  Oregon State Current Weather Observation



48 Hour Forecast

Seattle  …  Vancouver  …  Portland
————————————————————————————————————————
Bend  …  Spokane  …  Richland  …  Pendleton  …  Blue Mountains I-84  …  Yakima
————————————————————————————————————————
Goldendale, Washington Higher Elevations  …  Dallesport Airport - Goldendale  …  Bingen - White Salmon - Hood River  …  Index


Top of Page